Location: Newark
(46.2358°N, 112.1211°W)
Time: 10:18:21
(UTC+00:00)

Gurwin Techsat 1B - Visible Passes

Search period start: 29 July 2021 00:00
Search period end: 08 August 2021 00:00
Orbit: 812 x 813 km, 98.8° (Epoch: 28 July)

Date Brightness Start Highest point End Pass type
(mag) Time Alt. Az. Time Alt. Az. Time Alt. Az.
29 Jul 9.5 09:14:21 10° NNE 09:19:25 42° E 09:22:04 24° SSE visible
29 Jul 9.7 10:54:34 10° N 10:59:10 30° WNW 11:03:16 12° WSW visible
30 Jul 10.2 08:51:50 10° NE 08:56:20 27° E 08:58:50 19° SE visible
30 Jul 9.1 10:31:23 10° N 10:36:27 45° WNW 10:40:02 18° SW visible
31 Jul 10.7 08:29:43 10° NE 08:33:12 17° E 08:35:35 13° ESE visible
31 Jul 8.6 10:08:20 10° N 10:13:38 70° WNW 10:16:46 25° SSW visible
01 Aug 11.1 08:08:58 10° ENE 08:09:58 10° E 08:10:58 10° E visible
01 Aug 8.7 09:45:24 10° NNE 09:50:46 77° ESE 09:53:32 29° S visible
01 Aug 10.3 11:26:34 10° NNW 11:30:05 18° WNW 11:33:34 10° W visible
02 Aug 9.2 09:22:38 10° NNE 09:27:49 49° E 09:30:17 28° SSE visible
02 Aug 9.9 11:03:05 10° N 11:07:27 26° WNW 11:11:29 11° WSW visible
03 Aug 9.9 09:00:02 10° NNE 09:04:46 31° E 09:07:02 23° SE visible
03 Aug 9.3 10:39:50 10° N 10:44:45 39° WNW 10:48:14 18° SW visible
04 Aug 10.5 08:37:45 10° NE 08:41:40 20° E 08:43:47 16° ESE visible
04 Aug 8.8 10:16:43 10° N 10:21:59 60° WNW 10:24:59 25° SW visible
05 Aug 10.9 08:16:09 10° ENE 08:18:27 13° E 08:20:32 10° ESE visible
05 Aug 8.6 09:53:45 10° NNE 09:59:08 89° ESE 10:01:44 32° SSW visible
05 Aug 10.5 11:35:14 10° NNW 11:38:19 16° NW 11:41:24 10° W visible
06 Aug 9.0 09:30:56 10° NNE 09:36:12 58° E 09:38:29 32° SSE visible
06 Aug 10.0 11:11:37 10° N 11:15:43 23° WNW 11:19:41 11° WSW visible
07 Aug 9.7 09:08:16 10° NNE 09:13:11 37° E 09:15:13 27° SE visible
07 Aug 9.5 10:48:18 10° N 10:53:03 34° WNW 10:56:25 17° WSW visible
